Погода в Светлолобово

Россия / Иркутская область     54˚16′54″N   103˚07′41″E
темп.,
°C
ветер,
м/с
пор.,
м/с
влажн.,
%
обл.,
%
осадки,
мм/ч
давл.,
гПа
погр.,
м
17 января, вс
вс1723:00−21˚сз1199100 0.1 103322
02:00−22˚ссв1199100 0.3 103220
05:00−23˚всв1199100 0.1 103020
08:00−23˚вюв1199100 0.4 102920
11:00−21˚вюв1197100 0.2 1027139
14:00−19˚вюв1292100 0.5 1026300
17:00−19˚вюв1197100 0.1 102537
20:00−20˚вюв1197100 0.2 102524
18 января, пн
пн1823:00−21˚в2296100 0.0 102389
02:00−20˚вюв2399100 0.6 1020146
05:00−20˚вюв2298100 0.1 1018108
08:00−19˚ююв2298100 1.8 1019111
11:00−17˚ю2396100 0.4 1019164
14:00−15˚ююз2495100 0.4 1016226
17:00−17˚ю2298100 0.0 101532
20:00−18˚юв229899 0.1 101420
19 января, вт
вт1923:00−18˚юв229790 0.0 101120
02:00−16˚юв229592 0.0 100928
05:00−15˚ю1296100 0.0 100820
08:00−14˚сз1597100 0.2 1012134
11:00−12˚з31288100 0.0 10161126
14:00−12˚зсз498099 0.0 10181156
17:00−15˚з2288100 0.0 102123
20:00−19˚юз229166 0.0 102320
20 января, ср
ср2023:00−18˚ююз1291100 0.0 102320
02:00−17˚ююв1295100 0.1 102128
05:00−18˚юв1294100 0.1 101920
08:00−19˚ююв1293100 0.1 101820
11:00−18˚юв1192100 0.0 101635
14:00−14˚ююз128673 0.0 1015286
17:00−16˚зсз1193100 0.0 101620
20:00−16˚зсз2792100 0.1 1021239
21 января, чт
чт2123:00−21˚сз4118794 0.0 1026420
02:00−27˚сз119547 0.0 103119
05:00−31˚с11980 0.0 103319
08:00−32˚вюв11990 0.0 103419
11:00−28˚вюв119513 0.0 103156
14:00−22˚вюв128646 0.0 1026236
17:00−21˚в1193100 0.0 102441
20:00−21˚юв1191100 0.0 102320